Погода в Ялтушкове

Украина / Винницкая область     48°59′32″N   27°30′01″E
темп.,
°C
ветер,
м/с
пор.,
м/с
влажн.,
%
обл.,
%
осадки,
мм/ч
давл.,
гПа
погр.,
м
1 августа, вс
вс100:00+20ююв117245 0.0 100911
03:00+17св35935 0.1 101087
06:00+16ссз34953 0.1 101082
09:00+21ссз34760 0.1 1011405
12:00+25ссз22610 0.0 1011912
15:00+28з11490 0.0 10101301
18:00+28ююв22485 0.0 10091069
21:00+23ююв46661 0.0 100981
2 августа, пн
пн200:00+21ююв41067100 0.0 1008166
03:00+19вюв4588100 2.3 100881
06:00+19ю39899 0.0 1006151
09:00+23ююз51274100 0.0 1006387
12:00+28зюз34550 0.0 1006754
15:00+30зсз56456 0.0 10061992
18:00+23сз49737 5.0 1008286
21:00+19ссз48840 5.2 1011231
3 августа, вт
вт300:00+15сз39920 0.0 1013267
03:00+14сз35950 0.0 1015128
06:00+13сз36965 0.0 1015124
09:00+18зсз357644 0.0 1016465
12:00+22зсз345620 0.0 10161480
15:00+23сз4450100 0.2 10161944
18:00+22зюз116172 0.0 1016124
21:00+18всв22680 0.0 101711
4 августа, ср
ср400:00+17вюв22730 0.0 101711
03:00+15юв22770 0.0 101812
06:00+15вюв337991 0.0 101734
09:00+20юв4665100 0.0 1018351
12:00+24ююв575684 0.0 10171183
15:00+26ююв555013 0.0 10161866
18:00+26ююв455496 0.0 10151389
21:00+21юв3572100 0.0 101570
5 августа, чт
чт500:00+20юв3975100 0.0 1014189
03:00+19ююв51387100 1.4 1013293
06:00+18ююв61486100 0.1 1012339
09:00+21ю7127556 0.1 1012441
12:00+27ю785698 0.0 1011781
15:00+29ююв684946 0.0 1009960
18:00+28ююв9135513 0.0 10061255
21:00+20юв51485100 3.1 1005333